GW3855 Weather Reports


time (UTC)temp
C
wind
direction
speed
KPH
gust
KPH
rain 1hr
cm
rain 24hr
cm
rain mn
cm
humidity
%
barometer
mb
20260507080108 12 39 4.8 6.4 0.30 0.38 0.38 94 1006.1
20260507075603 12 55 6.4 6.4 0.61 0.38 0.38 94 1006.0
20260507075100 12 36 6.4 6.4 0.89 0.33 0.33 94 1006.2
20260507074557 12 46 4.8 6.4 1.07 0.28 0.28 94 1006.2
20260507074055 12 41 9.7 11.3 0.71 0.20 0.20 94 1006.2
20260507073550 13 311 14.5 20.9 0.43 0.10 0.10 94 1006.1
20260507073047 13 49 3.2 4.8 0.13 0.05 0.05 95 1005.5
20260507072545 12 330 4.8 6.4 0.00 0.03 0.03 95 1005.5
20260507072042 12 43 4.8 6.4 0.00 0.03 0.03 96 1005.4
20260507071539 12 81 0.0 0.0 0.00 0.03 0.03 96 1005.1
20260507071036 12 145 0.0 0.0 0.00 0.03 0.03 96 1005.3
20260507070533 12 87 0.0 0.0 0.00 0.03 0.03 96 1004.9
20260507070030 12 81 0.0 0.0 0.00 0.03 0.03 96 1004.9
20260507065526 12 99 0.0 0.0 0.00 0.03 0.03 96 1004.8
20260507065023 12 96 0.0 0.0 0.00 0.03 0.03 96 1004.7
20260507064521 12 90 0.0 0.0 0.00 0.03 0.03 96 1004.9
20260507064020 12 76 0.0 0.0 0.00 0.03 0.03 96 1005.1
20260507063516 12 61 0.0 0.0 0.00 0.03 0.03 96 1005.2
20260507063014 12 103 0.0 0.0 0.00 0.03 0.03 96 1005.1
20260507062510 12 96 0.0 0.0 0.00 0.03 0.03 96 1005.3
20260507062008 11 124 1.6 3.2 0.00 0.03 0.03 96 1005.2
20260507061506 11 140 0.0 1.6 0.00 0.03 0.03 96 1005.2
20260507061004 11 112 1.6 3.2 0.00 0.03 0.03 96 1005.2
20260507060501 11 109 1.6 3.2 0.00 0.03 0.03 95 1005.2
20260507055957 11 136 0.0 0.0 0.18 0.03 0.03 95 1005.0
20260507055452 12 156 1.6 1.6 0.18 0.03 0.03 95 1005.4
20260507054949 12 165 6.4 6.4 0.00 0.00 0.00 96 1005.4
20260507054445 11 190 6.4 6.4 0.00 0.00 0.00 96 1005.9
20260507053943 11 177 6.4 9.7 0.00 0.00 0.00 95 1005.7
20260507053440 12 149 6.4 6.4 0.00 0.00 0.00 95 1005.9
20260507052938 12 181 6.4 6.4 0.00 0.00 0.00 95 1005.9
20260507052436 12 94 0.0 0.0 0.00 0.00 0.00 95 1005.8
20260507051933 12 170 3.2 4.8 0.00 0.00 0.00 95 1006.0
20260507051430 12 185 6.4 6.4 0.00 0.00 0.00 95 1006.0
20260507050927 12 189 6.4 6.4 0.00 0.00 0.00 95 1006.2
20260507050423 12 172 8.0 9.7 0.00 0.00 0.00 95 1006.2
20260507045920 12 178 4.8 4.8 0.00 0.00 0.00 95 1006.4
20260507045417 12 173 6.4 6.4 0.00 0.00 0.00 95 1006.2
20260507044914 12 188 6.4 6.4 0.00 0.00 0.00 95 1006.0
20260507044411 12 171 6.4 6.4 0.00 0.00 0.00 95 1006.1
20260507043907 12 187 6.4 6.4 0.00 0.00 0.00 95 1006.1
20260507043403 12 186 6.4 6.4 0.00 0.00 0.00 95 1006.2
20260507042859 12 200 8.0 9.7 0.00 0.00 0.00 95 1006.2
20260507042355 12 182 9.7 9.7 0.00 0.00 0.00 94 1006.1
20260507041846 12 202 9.7 11.3 0.00 0.00 0.00 95 1006.3
20260507041343 12 191 9.7 11.3 0.00 0.00 0.00 94 1006.0
20260507040840 12 174 9.7 11.3 0.00 0.00 0.00 94 1006.1
20260507040336 12 179 9.7 11.3 0.00 0.00 0.00 94 1006.0
20260507035832 12 196 11.3 12.9 0.00 0.08 0.08 95 1006.3
20260507035328 12 196 6.4 6.4 0.00 0.08 0.08 94 1006.4
20260507034826 12 145 4.8 4.8 0.00 0.08 0.08 93 1006.3
20260507034322 13 165 4.8 4.8 0.00 0.08 0.08 94 1006.3
20260507033820 13 196 8.0 9.7 0.00 0.08 0.08 94 1006.3
20260507033318 13 191 4.8 4.8 0.00 0.08 0.08 93 1006.4
20260507032814 13 189 6.4 6.4 0.00 0.08 0.08 94 1006.3
20260507032310 13 208 6.4 6.4 0.00 0.08 0.08 94 1006.5
20260507031807 13 225 9.7 11.3 0.00 0.08 0.08 94 1006.5
20260507031304 13 223 8.0 9.7 0.00 0.08 0.08 94 1006.6
20260507030800 13 202 8.0 9.7 0.00 0.08 0.08 94 1006.3
20260507030258 13 224 9.7 11.3 0.00 0.08 0.08 94 1006.5
20260507025755 13 217 9.7 11.3 0.00 0.08 0.08 94 1006.3
20260507025253 13 231 14.5 14.5 0.00 0.08 0.08 94 1006.2
20260507024750 13 233 14.5 16.1 0.00 0.08 0.08 94 1006.3
20260507024247 13 235 11.3 12.9 0.00 0.08 0.08 94 1006.4
20260507023743 13 219 14.5 14.5 0.00 0.08 0.08 94 1006.5
20260507023240 13 237 12.9 12.9 0.00 0.08 0.08 94 1006.4
20260507022737 13 228 11.3 12.9 0.00 0.08 0.08 94 1006.2
20260507022233 13 229 12.9 14.5 0.00 0.08 0.08 94 1006.4
20260507021729 13 226 11.3 12.9 0.00 0.08 0.08 94 1006.8
20260507021225 12 213 12.9 12.9 0.00 0.08 0.08 94 1006.8
20260507020724 12 212 16.1 17.7 0.00 0.08 0.08 94 1006.8
20260507020219 12 201 16.1 17.7 0.00 0.08 0.08 94 1006.4
20260507015717 12 210 17.7 17.7 0.00 0.08 0.08 93 1006.5
20260507015215 12 206 14.5 17.7 0.00 0.08 0.08 93 1006.4
20260507014711 13 206 19.3 20.9 0.00 0.08 0.08 93 1006.4
20260507014207 13 213 20.9 24.1 0.00 0.08 0.08 93 1006.6
20260507013704 13 204 17.7 20.9 0.00 0.08 0.08 93 1006.8
20260507013202 13 207 17.7 17.7 0.00 0.08 0.08 93 1006.7
20260507012659 13 220 17.7 17.7 0.00 0.08 0.08 93 1006.8
20260507012154 13 205 16.1 17.7 0.00 0.08 0.08 93 1006.6
20260507011652 13 231 19.3 22.5 0.00 0.08 0.08 93 1006.8
20260507011148 13 216 22.5 25.7 0.00 0.08 0.08 93 1006.9
20260507010643 13 221 22.5 25.7 0.00 0.08 0.08 93 1007.1
20260507010139 13 208 19.3 20.9 0.00 0.08 0.08 93 1006.9
20260507005637 13 210 17.7 17.7 0.00 0.08 0.08 93 1007.2
20260507005133 13 220 17.7 17.7 0.00 0.08 0.08 93 1007.1
20260507004630 13 234 20.9 22.5 0.00 0.08 0.08 93 1006.9
20260507004128 13 221 19.3 20.9 0.00 0.08 0.08 93 1007.1
20260507003624 13 221 19.3 20.9 0.00 0.08 0.08 92 1007.1
20260507003118 13 230 22.5 25.7 0.00 0.08 0.08 92 1007.0
20260507002615 13 215 16.1 17.7 0.00 0.08 0.08 92 1007.1
20260507002111 13 222 19.3 22.5 0.00 0.08 0.08 92 1006.8
20260507001608 13 235 20.9 24.1 0.00 0.08 0.08 92 1006.8
20260507001106 13 228 25.7 27.4 0.00 0.08 0.08 92 1007.0
20260507000602 13 231 19.3 20.9 0.00 0.08 0.08 92 1006.8
20260507000057 13 231 24.1 27.4 0.00 0.08 0.08 92 1006.8
20260506235555 13 218 24.1 27.4 0.00 0.08 0.08 92 1006.8
20260506235050 13 227 16.1 16.1 0.00 0.08 0.08 92 1006.8
20260506234548 13 234 27.4 37.0 0.00 0.08 0.08 92 1006.9
20260506234044 13 216 20.9 25.7 0.00 0.08 0.08 92 1007.0
20260506233542 13 217 25.7 27.4 0.00 0.08 0.08 93 1006.9
20260506233038 13 216 22.5 25.7 0.00 0.08 0.08 93 1006.8
20260506232534 13 227 22.5 25.7 0.00 0.08 0.08 93 1006.9
20260506232030 13 224 22.5 24.1 0.00 0.08 0.08 93 1006.9
20260506231528 13 234 24.1 25.7 0.00 0.08 0.08 93 1006.8
20260506231026 13 210 30.6 33.8 0.00 0.08 0.08 93 1006.8
20260506230522 13 218 27.4 27.4 0.00 0.08 0.08 93 1006.7
20260506230019 13 224 27.4 29.0 0.00 0.08 0.08 93 1006.7
20260506225516 13 215 24.1 25.7 0.00 0.08 0.08 93 1006.8
20260506225012 13 210 22.5 25.7 0.00 0.08 0.08 94 1006.6
20260506224509 13 223 22.5 24.1 0.00 0.08 0.08 94 1006.7
20260506224006 13 217 22.5 24.1 0.00 0.08 0.08 94 1006.6
20260506223501 13 216 30.6 30.6 0.00 0.08 0.08 94 1006.6
20260506222954 12 209 27.4 29.0 0.13 0.08 0.08 94 1006.8
20260506222450 12 194 20.9 24.1 0.13 0.08 0.08 93 1006.9
20260506221946 13 206 25.7 27.4 0.00 0.05 0.05 93 1006.8
20260506221443 13 202 24.1 25.7 0.18 0.05 0.05 92 1006.8
20260506220941 13 199 22.5 24.1 0.18 0.05 0.05 92 1007.0
20260506220436 13 212 24.1 25.7 0.00 0.03 0.03 92 1007.1
20260506215933 13 212 22.5 24.1 0.00 0.03 0.03 91 1007.2
20260506215429 13 219 20.9 27.4 0.00 0.03 0.03 91 1007.2
20260506214925 13 205 20.9 22.5 0.00 0.03 0.03 91 1007.2
20260506214422 13 198 20.9 24.1 0.18 0.03 0.03 92 1007.2
20260506213920 13 220 29.0 33.8 0.18 0.03 0.03 92 1007.3
20260506213418 13 210 22.5 24.1 0.00 0.00 0.00 92 1007.4
20260506212915 13 220 24.1 25.7 0.00 0.00 0.00 91 1007.4
20260506212411 13 226 20.9 22.5 0.00 0.00 0.00 92 1007.5
20260506211905 13 205 12.9 14.5 0.00 0.00 0.00 91 1007.6
20260506211402 13 226 17.7 17.7 0.00 0.00 0.00 91 1007.5
20260506210859 13 205 22.5 24.1 0.00 0.00 0.00 91 1007.6
20260506210356 13 232 20.9 22.5 0.00 0.00 0.00 91 1007.5
20260506205853 13 209 22.5 24.1 0.00 0.00 0.00 91 1007.8
20260506205349 13 211 17.7 20.9 0.00 0.00 0.00 91 1007.8
20260506204846 13 211 19.3 22.5 0.00 0.00 0.00 91 1007.7
20260506204343 13 212 25.7 29.0 0.00 0.00 0.00 91 1007.9
20260506203841 13 204 22.5 24.1 0.00 0.00 0.00 91 1007.8
20260506203338 13 200 24.1 27.4 0.00 0.00 0.00 90 1007.8
20260506202834 13 208 20.9 24.1 0.00 0.00 0.00 90 1007.9
20260506202332 14 229 17.7 20.9 0.00 0.00 0.00 90 1007.9
20260506201828 14 211 27.4 30.6 0.00 0.00 0.00 90 1008.0
20260506201326 14 219 20.9 22.5 0.00 0.00 0.00 89 1008.1
20260506200822 14 219 20.9 24.1 0.00 0.00 0.00 89 1007.9
20260506200318 14 213 27.4 29.0 0.00 0.00 0.00 88 1007.9
20260506195814 14 221 24.1 25.7 0.00 0.00 0.00 88 1008.2
20260506195312 14 209 27.4 29.0 0.00 0.00 0.00 87 1008.3
20260506194809 14 218 24.1 27.4 0.00 0.00 0.00 87 1008.3
20260506194305 14 212 33.8 35.4 0.00 0.00 0.00 88 1008.2
20260506193803 14 207 27.4 29.0 0.00 0.00 0.00 88 1008.1
20260506193259 14 210 30.6 30.6 0.00 0.00 0.00 87 1008.4
20260506192755 14 203 30.6 33.8 0.00 0.00 0.00 86 1008.0
20260506192253 15 222 30.6 35.4 0.00 0.00 0.00 85 1008.3
20260506191750 15 216 29.0 30.6 0.00 0.00 0.00 84 1008.2
20260506191246 15 220 33.8 35.4 0.00 0.00 0.00 83 1008.2
20260506190743 15 233 37.0 38.6 0.00 0.00 0.00 82 1008.3
20260506190240 15 226 27.4 33.8 0.00 0.00 0.00 81 1008.2
20260506185737 15 231 30.6 33.8 0.00 0.00 0.00 81 1008.4
20260506185233 15 207 24.1 25.7 0.00 0.00 0.00 79 1008.5
20260506184730 15 226 27.4 29.0 0.00 0.00 0.00 79 1008.6
20260506184228 15 225 29.0 33.8 0.00 0.00 0.00 79 1008.5
20260506183725 15 210 25.7 27.4 0.00 0.00 0.00 80 1008.5
20260506183220 15 217 25.7 30.6 0.00 0.00 0.00 79 1008.8
20260506182718 15 222 25.7 30.6 0.00 0.00 0.00 80 1008.7
20260506182215 15 220 32.2 35.4 0.00 0.00 0.00 79 1008.7
20260506181713 15 206 29.0 30.6 0.00 0.00 0.00 80 1008.9
20260506181210 15 233 32.2 37.0 0.00 0.00 0.00 80 1008.9
20260506180707 15 217 27.4 30.6 0.00 0.00 0.00 79 1008.9
20260506180202 15 204 32.2 33.8 0.00 0.00 0.00 79 1009.0
20260506175659 15 219 35.4 37.0 0.00 0.00 0.00 79 1008.8
20260506175156 15 219 41.8 43.5 0.00 0.00 0.00 79 1009.0
20260506174649 16 213 35.4 38.6 0.00 0.00 0.00 79 1009.1
20260506174145 16 219 38.6 41.8 0.00 0.00 0.00 78 1009.2
20260506173643 16 212 43.5 48.3 0.00 0.00 0.00 78 1009.1
20260506173140 16 213 37.0 40.2 0.00 0.00 0.00 78 1009.3
20260506172637 16 229 30.6 33.8 0.00 0.00 0.00 77 1009.6
20260506172133 16 213 38.6 43.5 0.00 0.00 0.00 76 1009.5
20260506171631 16 218 38.6 46.7 0.00 0.00 0.00 77 1009.5
20260506171129 16 212 32.2 33.8 0.00 0.00 0.00 76 1009.4
20260506170626 16 214 33.8 41.8 0.00 0.00 0.00 76 1009.3
20260506170123 16 212 29.0 30.6 0.00 0.00 0.00 78 1009.4
20260506165621 16 221 32.2 38.6 0.00 0.00 0.00 78 1009.6
20260506165117 16 220 40.2 48.3 0.00 0.00 0.00 78 1009.3
20260506164614 16 203 33.8 38.6 0.00 0.00 0.00 79 1009.8
20260506164112 16 228 32.2 35.4 0.00 0.00 0.00 78 1009.7
20260506163607 16 206 33.8 37.0 0.00 0.00 0.00 77 1009.9
20260506163103 16 231 33.8 38.6 0.00 0.00 0.00 78 1010.0
20260506162559 15 219 33.8 37.0 0.00 0.00 0.00 79 1010.2
20260506162051 15 220 33.8 37.0 0.00 0.00 0.00 79 1010.2
20260506161548 15 218 30.6 37.0 0.00 0.00 0.00 78 1010.1
20260506161040 16 212 37.0 40.2 0.00 0.00 0.00 78 1010.1
20260506160537 16 198 33.8 38.6 0.00 0.00 0.00 78 1010.2
20260506160034 16 209 29.0 30.6 0.00 0.00 0.00 76 1010.2
20260506155532 16 205 32.2 35.4 0.00 0.00 0.00 76 1010.3
20260506153704 16 223 37.0 38.6 0.00 0.00 0.00 77 1010.3
20260506153201 16 214 33.8 38.6 0.00 0.00 0.00 76 1010.3
20260506152658 16 218 27.4 30.6 0.00 0.00 0.00 77 1010.4
20260506152155 16 209 30.6 33.8 0.00 0.00 0.00 75 1010.2
20260506151654 16 201 35.4 40.2 0.00 0.00 0.00 78 1010.5
20260506151150 16 212 32.2 37.0 0.00 0.00 0.00 76 1010.6
20260506150647 16 205 33.8 35.4 0.00 0.00 0.00 76 1010.2
20260506150144 16 213 37.0 40.2 0.00 0.00 0.00 77 1010.5
20260506145641 16 208 30.6 35.4 0.00 0.00 0.00 78 1010.7
20260506145137 15 208 33.8 37.0 0.00 0.00 0.00 79 1010.7
20260506144636 15 214 29.0 33.8 0.00 0.00 0.00 78 1010.6
20260506144132 15 205 27.4 33.8 0.00 0.00 0.00 78 1010.4
20260506143630 15 216 33.8 38.6 0.00 0.00 0.00 80 1010.4
20260506143127 15 207 33.8 37.0 0.00 0.00 0.00 79 1010.4
20260506142626 15 216 35.4 38.6 0.00 0.00 0.00 79 1010.7
20260506142123 15 210 37.0 40.2 0.00 0.00 0.00 79 1010.5
20260506141621 15 223 32.2 35.4 0.00 0.00 0.00 81 1010.7
20260506141119 15 209 29.0 33.8 0.00 0.00 0.00 79 1010.5
20260506140616 15 212 32.2 37.0 0.00 0.00 0.00 81 1010.5
20260506140113 15 208 33.8 37.0 0.00 0.00 0.00 81 1010.4
20260506135610 15 200 33.8 37.0 0.00 0.00 0.00 80 1010.1
20260506135106 15 212 27.4 30.6 0.00 0.00 0.00 80 1010.4
20260506134603 15 192 27.4 29.0 0.00 0.00 0.00 80 1010.6
20260506134058 15 204 22.5 24.1 0.00 0.00 0.00 80 1010.6
20260506133556 15 223 27.4 29.0 0.00 0.00 0.00 79 1010.6
20260506133053 15 214 25.7 27.4 0.00 0.00 0.00 80 1010.7
20260506132550 15 209 27.4 30.6 0.00 0.00 0.00 80 1010.8
20260506132047 15 208 27.4 30.6 0.00 0.00 0.00 80 1010.8
20260506131544 15 207 20.9 22.5 0.00 0.00 0.00 80 1010.8
20260506131041 15 219 30.6 33.8 0.00 0.00 0.00 81 1010.7
20260506130538 15 207 27.4 29.0 0.00 0.00 0.00 81 1010.9
20260506130035 15 208 29.0 33.8 0.00 0.00 0.00 82 1011.0
20260506125533 15 211 27.4 30.6 0.00 0.00 0.00 83 1011.0
20260506125031 15 219 30.6 33.8 0.00 0.00 0.00 83 1011.0
20260506124529 14 210 29.0 33.8 0.00 0.00 0.00 84 1010.8
20260506124026 14 220 29.0 30.6 0.00 0.00 0.00 84 1010.8
20260506123524 14 207 27.4 29.0 0.00 0.00 0.00 83 1010.8
20260506123022 14 199 30.6 35.4 0.00 0.00 0.00 84 1010.7
20260506122518 14 216 30.6 33.8 0.00 0.00 0.00 84 1010.9
20260506122016 14 217 25.7 29.0 0.00 0.00 0.00 84 1010.9
20260506121514 14 216 22.5 25.7 0.00 0.00 0.00 84 1010.9
20260506121010 14 204 20.9 24.1 0.00 0.00 0.00 84 1011.0
20260506120508 13 216 22.5 24.1 0.00 0.00 0.00 85 1011.0
20260506120005 13 216 24.1 25.7 0.00 0.00 0.00 85 1011.0
20260506115503 13 214 25.7 27.4 0.00 0.00 0.00 86 1011.1
20260506115001 13 205 24.1 25.7 0.00 0.00 0.00 86 1011.1
20260506114458 13 199 27.4 29.0 0.00 0.00 0.00 87 1011.1
20260506113956 13 209 24.1 27.4 0.00 0.00 0.00 86 1011.2
20260506113454 13 217 24.1 25.7 0.00 0.00 0.00 86 1011.4
20260506112950 13 206 25.7 29.0 0.00 0.00 0.00 86 1011.2
20260506112448 13 212 25.7 29.0 0.00 0.00 0.00 87 1011.2
20260506111945 13 215 22.5 24.1 0.00 0.00 0.00 87 1011.4
20260506111443 13 196 22.5 24.1 0.00 0.00 0.00 87 1011.4
20260506110939 13 218 22.5 25.7 0.00 0.00 0.00 87 1011.3
20260506110438 13 218 30.6 30.6 0.00 0.00 0.00 87 1011.3
20260506105934 13 217 20.9 24.1 0.00 0.00 0.00 88 1011.2
20260506105430 13 213 22.5 24.1 0.00 0.00 0.00 87 1011.3
20260506104928 13 202 24.1 24.1 0.00 0.00 0.00 87 1011.1
20260506104425 13 209 20.9 22.5 0.00 0.00 0.00 86 1011.1
20260506103924 13 212 22.5 24.1 0.00 0.00 0.00 86 1010.9
20260506103421 13 227 20.9 24.1 0.00 0.00 0.00 86 1011.1
20260506102917 14 232 22.5 25.7 0.00 0.00 0.00 86 1011.0
20260506102416 13 218 24.1 27.4 0.00 0.00 0.00 86 1011.0
20260506101913 13 219 32.2 37.0 0.00 0.00 0.00 86 1010.7
20260506101409 13 222 27.4 29.0 0.00 0.00 0.00 87 1011.0
20260506100906 13 214 20.9 24.1 0.00 0.00 0.00 87 1011.2
20260506100404 13 207 20.9 22.5 0.00 0.00 0.00 86 1010.9
20260506095902 13 220 24.1 25.7 0.00 0.00 0.00 87 1010.8
20260506095400 13 208 19.3 20.9 0.00 0.00 0.00 86 1010.9
20260506094856 13 222 19.3 22.5 0.00 0.00 0.00 87 1010.8
20260506094355 13 226 27.4 29.0 0.00 0.00 0.00 86 1010.9
20260506093852 14 213 24.1 25.7 0.00 0.00 0.00 86 1010.9
20260506093350 14 228 29.0 30.6 0.00 0.00 0.00 87 1010.8
20260506092847 14 234 27.4 29.0 0.00 0.00 0.00 87 1010.9
20260506092345 14 212 25.7 27.4 0.00 0.00 0.00 87 1010.9
20260506091836 14 226 24.1 27.4 0.00 0.00 0.00 86 1010.9
20260506091334 14 222 25.7 27.4 0.00 0.00 0.00 86 1011.0
20260506090831 14 225 24.1 25.7 0.00 0.00 0.00 86 1010.8
20260506090328 14 224 24.1 27.4 0.00 0.00 0.00 86 1010.9
20260506085825 14 219 22.5 24.1 0.00 0.00 0.00 86 1011.2
20260506085321 14 217 24.1 25.7 0.00 0.00 0.00 86 1011.2
20260506084818 14 228 24.1 29.0 0.00 0.00 0.00 86 1011.2
20260506084315 14 209 27.4 30.6 0.00 0.00 0.00 86 1011.3
20260506083811 14 214 25.7 27.4 0.00 0.00 0.00 85 1011.2
20260506083309 14 201 27.4 33.8 0.00 0.00 0.00 85 1011.2
20260506082806 14 217 27.4 33.8 0.00 0.00 0.00 85 1011.0
20260506082304 14 207 27.4 30.6 0.00 0.00 0.00 85 1011.3
20260506081759 14 215 27.4 29.0 0.00 0.00 0.00 84 1011.3
20260506081257 14 224 25.7 27.4 0.00 0.00 0.00 85 1011.3
20260506080755 15 234 25.7 27.4 0.00 0.00 0.00 84 1011.3